Weather History for Plattsmouth, NE

Change the Weather History Date:

Tuesday, November 6, 2012

  Actual Average (KOFF) Record (KOFF)
Temperature  
Mean Temperature 48 °F -  
Max Temperature 57 °F 51 °F 77 °F (2004)
Min Temperature 38 °F 32 °F 19 °F (2003)
Degree Days  
Heating Degree Days 18    
Moisture  
Dew Point 34 °F    
Average Humidity 68    
Maximum Humidity 97    
Minimum Humidity 34    
Precipitation  
Precipitation 0.00 in - - ()
Sea Level Pressure  
Sea Level Pressure 30.01 in    
Wind  
Wind Speed 12 mph (WNW)    
Max Wind Speed 26 mph    
Max Gust Speed 37 mph    
Visibility 8 miles    
Events      
Averages and records for this station are not official NWS values.
T = Trace of Precipitation, MM = Missing Value Source: NWS Daily Summary

Daily Weather History Graph

Daily Weather History Graph

Search for Another Location

Airport:

Trip Planner

Search our weather history database for the weather conditions in past years. The results will help you decide how hot, cold, wet, or windy it might be!

Date:

Astronomy

Nov. 06, 2012 Rise Set
Actual Time 7:00 AM CST 5:13 PM CST
Civil Twilight 6:32 AM CST 5:42 PM CST
Nautical Twilight 5:59 AM CST 6:14 PM CST
Astronomical Twilight 5:27 AM CST 6:46 PM CST
Moon 11:53 PM CST (11/6) 12:53 PM CST (11/6)
Length of Visible Light 11h 10m
Length of Day
10h 12m
Waning Gibbous, 53% of the Moon is Illuminated
Nov 6
Waning Gibbous
Nov 6
Last Quarter
Nov 13
New
Nov 20
First Quarter
Nov 28
Full

Hourly Weather History & Observations

Time (CST) Temp. Windchill Dew Point Humidity Pressure Visibility Wind Dir Wind Speed Gust Speed Precip Events Conditions
12:15 AM 41.2 °F 39.2 °F 40.5 °F 97% 30.06 in 2.5 mi South 3.5 mph - N/A   Overcast
12:35 AM 41.2 °F 36.6 °F 40.5 °F 97% 30.03 in 2.5 mi SSE 6.9 mph - N/A   Overcast
12:55 AM 41.0 °F 35.8 °F 40.1 °F 97% 30.01 in 3.0 mi South 8.1 mph - N/A   Mostly Cloudy
1:15 AM 41.0 °F 35.8 °F 40.1 °F 97% 30.02 in 3.0 mi South 8.1 mph - N/A   Scattered Clouds
1:35 AM 40.3 °F 37.1 °F 39.4 °F 97% 30.03 in 4.0 mi South 4.6 mph - N/A   Scattered Clouds
1:55 AM 40.6 °F 36.7 °F 39.7 °F 97% 30.03 in 4.0 mi South 5.8 mph - N/A   Overcast
2:15 AM 40.6 °F 34.8 °F 39.6 °F 96% 30.02 in 4.0 mi South 9.2 mph - N/A   Overcast
2:35 AM 40.6 °F 34.8 °F 39.4 °F 95% 30.01 in 4.0 mi South 9.2 mph - N/A   Overcast
2:55 AM 40.5 °F 34.1 °F 39.4 °F 96% 30.00 in 4.0 mi SSW 10.4 mph 17.3 mph N/A   Overcast
3:15 AM 40.3 °F 33.0 °F 39.2 °F 96% 29.99 in 4.0 mi South 12.7 mph - N/A   Mostly Cloudy
3:35 AM 40.5 °F 33.6 °F 39.2 °F 95% 29.99 in 4.0 mi SSW 11.5 mph - N/A   Scattered Clouds
3:55 AM 40.5 °F 34.1 °F 39.2 °F 95% 29.98 in 5.0 mi SSW 10.4 mph - N/A   Mostly Cloudy
4:15 AM 40.5 °F 33.2 °F 38.7 °F 93% 29.96 in 5.0 mi SSW 12.7 mph - N/A   Overcast
4:35 AM 40.5 °F 33.2 °F 38.3 °F 92% 29.95 in 7.0 mi South 12.7 mph 18.4 mph N/A   Mostly Cloudy
4:55 AM 40.5 °F 32.5 °F 38.5 °F 93% 29.95 in 7.0 mi South 15.0 mph - N/A   Overcast
5:15 AM 40.3 °F 33.9 °F 38.3 °F 93% 29.95 in 7.0 mi SSW 10.4 mph - N/A   Scattered Clouds
5:35 AM 39.4 °F 32.7 °F 37.6 °F 93% 29.96 in 5.0 mi SW 10.4 mph - N/A   Clear
5:55 AM 40.1 °F 34.7 °F 38.3 °F 93% 29.96 in 7.0 mi SW 8.1 mph - N/A   Mostly Cloudy
6:15 AM 39.6 °F 31.3 °F 37.4 °F 92% 29.95 in 7.0 mi SW 15.0 mph - N/A   Scattered Clouds
6:35 AM 39.2 °F 33.0 °F 36.9 °F 91% 29.96 in 7.0 mi WSW 9.2 mph - N/A   Clear
6:55 AM 39.4 °F 32.7 °F 36.7 °F 90% 29.97 in 7.0 mi West 10.4 mph - N/A   Scattered Clouds
7:15 AM 40.6 °F 33.4 °F 37.8 °F 89% 29.96 in 10.0 mi West 12.7 mph - N/A   Overcast
7:35 AM 40.5 °F 34.1 °F 37.6 °F 89% 29.97 in 10.0 mi West 10.4 mph - N/A   Scattered Clouds
7:55 AM 42.8 °F 36.2 °F 39.2 °F 87% 29.99 in 10.0 mi WNW 12.7 mph - N/A   Clear
8:15 AM 43.5 °F 36.4 °F 39.6 °F 86% 30.00 in 10.0 mi WNW 15.0 mph 20.7 mph N/A   Clear
8:35 AM 43.9 °F 36.8 °F 40.1 °F 87% 30.01 in 10.0 mi NW 15.0 mph - N/A   Clear
8:55 AM 45.7 °F 38.0 °F 40.5 °F 82% 30.01 in 10.0 mi NW 19.6 mph 23.0 mph N/A   Clear
9:15 AM 47.3 °F - 39.2 °F 73% 30.01 in 10.0 mi NW 23.0 mph 28.8 mph N/A   Clear
9:35 AM 48.2 °F - 37.8 °F 67% 30.02 in 10.0 mi NNW 19.6 mph 24.2 mph N/A   Clear
9:55 AM 49.3 °F - 37.0 °F 63% 30.02 in 10.0 mi NW 18.4 mph 23.0 mph N/A   Clear
10:15 AM 50.2 °F - 37.0 °F 61% 30.02 in 10.0 mi NW 18.4 mph 24.2 mph N/A   Clear
10:35 AM 51.1 °F - 35.4 °F 55% 30.02 in 10.0 mi NW 20.7 mph 25.3 mph N/A   Clear
10:55 AM 51.4 °F - 34.9 °F 53% 30.02 in 10.0 mi NW 21.9 mph 27.6 mph N/A   Clear
11:15 AM 52.5 °F - 34.0 °F 49% 30.02 in 10.0 mi NW 18.4 mph 31.1 mph N/A   Clear
11:35 AM 53.6 °F - 33.8 °F 47% 30.01 in 10.0 mi NW 20.7 mph 25.3 mph N/A   Clear
11:55 AM 54.0 °F - 32.2 °F 44% 30.01 in 10.0 mi NW 23.0 mph 26.5 mph N/A   Clear
12:15 PM 54.7 °F - 32.0 °F 42% 30.00 in 10.0 mi NW 23.0 mph 31.1 mph N/A   Clear
12:35 PM 55.4 °F - 31.5 °F 40% 29.99 in 10.0 mi NW 20.7 mph 27.6 mph N/A   Clear
12:55 PM 56.3 °F - 31.5 °F 39% 29.99 in 10.0 mi NW 17.3 mph 31.1 mph N/A   Clear
1:15 PM 56.3 °F - 29.7 °F 36% 29.98 in 10.0 mi NW 21.9 mph 28.8 mph N/A   Clear
1:35 PM 57.4 °F - 30.0 °F 35% 29.98 in 10.0 mi NW 26.5 mph 31.1 mph N/A   Clear
1:55 PM 57.0 °F - 29.3 °F 35% 29.98 in 10.0 mi NW 25.3 mph 33.4 mph N/A   Clear
2:15 PM 57.2 °F - 28.8 °F 34% 29.98 in 10.0 mi WNW 24.2 mph 36.8 mph N/A   Clear
2:35 PM 57.2 °F - 29.1 °F 34% 29.98 in 10.0 mi NW 26.5 mph 34.5 mph N/A   Clear
2:55 PM 57.0 °F - 29.3 °F 35% 29.98 in 10.0 mi NW 25.3 mph 31.1 mph N/A   Clear
3:15 PM 56.5 °F - 29.7 °F 36% 29.99 in 10.0 mi NW 23.0 mph 34.5 mph N/A   Clear
3:35 PM 56.5 °F - 30.4 °F 37% 29.99 in 10.0 mi NW 21.9 mph - N/A   Clear
3:55 PM 55.8 °F - 30.6 °F 38% 29.99 in 10.0 mi NNW 23.0 mph 28.8 mph N/A   Clear
4:15 PM 55.4 °F - 30.7 °F 39% 30.00 in 10.0 mi NNW 23.0 mph 31.1 mph N/A   Clear
4:35 PM 54.5 °F - 30.6 °F 40% 30.01 in 10.0 mi NNW 16.1 mph 25.3 mph N/A   Clear
4:55 PM 53.4 °F - 30.9 °F 42% 30.01 in 10.0 mi NNW 15.0 mph 26.5 mph N/A   Clear
5:35 PM 50.4 °F - 32.0 °F 49% 30.02 in 10.0 mi NW 11.5 mph - N/A   Clear
5:55 PM 48.2 °F - 32.0 °F 54% 30.03 in 10.0 mi NW 10.4 mph - N/A   Clear
6:15 PM 48.0 °F - 32.0 °F 54% 30.04 in 10.0 mi NW 11.5 mph - N/A   Clear
6:35 PM 48.4 °F - 31.6 °F 52% 30.04 in 10.0 mi NW 10.4 mph - N/A   Clear
6:55 PM 47.3 °F - 31.6 °F 55% 30.05 in 10.0 mi NW 9.2 mph - N/A   Clear
7:15 PM 46.6 °F - 31.8 °F 56% 30.05 in 10.0 mi NW 9.2 mph - N/A   Clear
7:35 PM 45.9 °F 41.7 °F 31.6 °F 58% 30.05 in 10.0 mi WNW 8.1 mph - N/A   Clear
7:55 PM 45.1 °F 40.8 °F 31.6 °F 59% 30.05 in 10.0 mi NW 8.1 mph - N/A   Clear
8:15 PM 44.1 °F 40.8 °F 31.5 °F 61% 30.06 in 10.0 mi WNW 5.8 mph - N/A   Clear
8:35 PM 43.0 °F 39.5 °F 31.3 °F 63% 30.06 in 10.0 mi WNW 5.8 mph - N/A   Clear
8:55 PM 41.9 °F 37.5 °F 30.7 °F 65% 30.06 in 10.0 mi WNW 6.9 mph - N/A   Clear
9:15 PM 40.8 °F 36.2 °F 30.7 °F 67% 30.07 in 10.0 mi NW 6.9 mph - N/A   Clear
9:35 PM 40.1 °F 35.3 °F 30.6 °F 69% 30.07 in 10.0 mi West 6.9 mph - N/A   Clear
9:55 PM 39.4 °F 33.2 °F 30.2 °F 70% 30.06 in 10.0 mi WNW 9.2 mph - N/A   Clear
10:15 PM 39.7 °F 33.7 °F 30.6 °F 70% 30.06 in 10.0 mi WNW 9.2 mph - N/A   Clear
10:35 PM 39.6 °F 34.0 °F 30.2 °F 69% 30.07 in 10.0 mi WNW 8.1 mph - N/A   Clear
10:55 PM 39.4 °F 34.5 °F 30.2 °F 70% 30.07 in 10.0 mi West 6.9 mph - N/A   Clear
11:15 PM 39.6 °F 34.7 °F 30.0 °F 69% 30.07 in 10.0 mi WNW 6.9 mph - N/A   Clear
11:35 PM 38.3 °F 32.5 °F 30.0 °F 72% 30.07 in 10.0 mi West 8.1 mph - N/A   Clear
11:55 PM 38.1 °F 31.7 °F 29.8 °F 72% 30.08 in 10.0 mi West 9.2 mph - N/A   Clear